This demonstration page uses our WeatherBlox Daily Observations layout. Learn more.

Left ArrowRight Arrow

Hourly Observations for August 20, 2016

Temp ( °F °C ) Dew Point ( °F °C ) Humidity (%) Winds ( mph kmh ) Pressure ( in mb ) Visibility ( mi km ) Precip ( " mm )
12:14 am 00:14 Clear 68 20 68 20 100 100 S 3 6 29.94 1014 7 11.26538 N/A
12:34 am 00:34 Clear 68 20 68 20 100 100 S 3 6 29.94 1014 7 11.26538 N/A
12:54 am 00:54 Clear 68 20 68 20 100 100 S 3 6 29.94 1014 5 8.0467 N/A
1:14 am 01:14 Clear 68 20 68 20 100 100 Calm 29.94 1014 5 8.0467 N/A
1:34 am 01:34 Clear 68 20 68 20 100 100 Calm 29.94 1014 5 8.0467 N/A
1:54 am 01:54 Mostly Cloudy 66 19 66 19 100 100 Calm 29.94 1014 1.75 2.816345 N/A
2:14 am 02:14 Mostly Cloudy 66 19 66 19 100 100 Calm 29.94 1014 1.75 2.816345 N/A
2:34 am 02:34 Mostly Cloudy 66 19 66 19 100 100 Calm 29.94 1014 1.25 2.011675 N/A
2:54 am 02:54 Clear 66 19 66 19 100 100 Calm 29.94 1014 4 6.43736 N/A
3:14 am 03:14 Clear 66 19 66 19 100 100 SSE 3 6 29.94 1014 3 4.82802 N/A
3:34 am 03:34 Clear 66 19 66 19 100 100 Calm 29.94 1014 3 4.82802 N/A
3:54 am 03:54 Clear 66 19 66 19 100 100 Calm 29.91 1013 3 4.82802 N/A
4:14 am 04:14 Clear 66 19 66 19 100 100 Calm 29.91 1013 3 4.82802 N/A
4:33 am 04:33 Clear 66 19 66 19 100 100 SE 5 7 29.91 1013 3 4.82802 N/A
4:54 am 04:54 Clear 68 20 66 19 94 94 SE 5 7 29.88 1012 3 4.82802 N/A
5:14 am 05:14 Clear 68 20 66 19 94 94 SSE 5 7 29.88 1012 3 4.82802 N/A
5:34 am 05:34 Clear 68 20 68 20 100 100 Calm 29.88 1012 3 4.82802 N/A
5:54 am 05:54 Partly Cloudy 68 20 66 19 94 94 SE 6 9 29.88 1012 3 4.82802 N/A
6:14 am 06:14 Cloudy 68 20 68 20 100 100 SSE 5 7 29.88 1012 2.5 4.02335 N/A
6:34 am 06:34 Cloudy 68 20 68 20 100 100 SSE 6 9 29.85 1011 1.25 2.011675 N/A
6:54 am 06:54 Cloudy 68 20 68 20 100 100 SSE 6 9 29.85 1011 0.5 0.80467 N/A
7:14 am 07:14 Cloudy 68 20 68 20 100 100 SSE 7 11 29.85 1011 0.75 1.207005 N/A
7:34 am 07:34 Cloudy 68 20 68 20 100 100 SSE 7 11 29.85 1011 1.25 2.011675 N/A
7:54 am 07:54 Cloudy 68 20 68 20 100 100 SSE 8 13 29.85 1011 1.5 2.41401 N/A
8:14 am 08:14 Cloudy 70 21 68 20 94 94 SSE 7 11 29.85 1011 1.5 2.41401 N/A
8:34 am 08:34 Cloudy 70 21 70 21 100 100 SSE 7 11 29.83 1010 1.75 2.816345 N/A
8:54 am 08:54 Cloudy 70 21 70 21 100 100 SSE 7 11 29.83 1010 1.5 2.41401 N/A
9:14 am 09:14 Cloudy 70 21 70 21 100 100 S 10 17 29.83 1010 1.5 2.41401 N/A
9:34 am 09:34 Cloudy 70 21 70 21 100 100 S 9 15 29.83 1010 2 3.21868 N/A
9:54 am 09:54 Cloudy 72 22 70 21 94 94 SSE 9 15 29.8 1009 3 4.82802 N/A
10:13 am 10:13 Cloudy 72 22 70 21 94 94 S 9 15 29.8 1009 3 4.82802 N/A
10:34 am 10:34 Cloudy 72 22 70 21 94 94 S 13 20 29.8 1009 5 8.0467 N/A
10:54 am 10:54 Cloudy 72 22 70 21 94 94 S 7 11 29.8 1009 3 4.82802 N/A
11:13 am 11:13 Cloudy 72 22 70 21 94 94 S 8 13 29.8 1009 5 8.0467 N/A
11:34 am 11:34 Cloudy 72 22 70 21 94 94 S 10 17 29.8 1009 5 8.0467 N/A
11:54 am 11:54 Cloudy 72 22 72 22 100 100 S 7 11 29.8 1009 2.5 4.02335 N/A
12:14 pm 12:14 Cloudy 72 22 72 22 100 100 S 12 19 29.77 1008 2 3.21868 N/A
12:34 pm 12:34 Cloudy 72 22 72 22 100 100 S 10 17 29.77 1008 2.5 4.02335 N/A
12:54 pm 12:54 Cloudy 73 23 73 23 100 100 S 8 13 29.77 1008 4 6.43736 N/A
1:14 pm 13:14 Cloudy 73 23 73 23 100 100 S 9 15 29.77 1008 2 3.21868 N/A
1:34 pm 13:34 Cloudy 73 23 72 22 94 94 SSE 6 9 29.74 1007 0.75 1.207005 N/A
1:54 pm 13:54 Cloudy 73 23 73 23 100 100 SSW 3 6 29.74 1007 4 6.43736 N/A
2:14 pm 14:14 Cloudy 75 24 73 23 94 94 S 7 11 29.74 1007 2.5 4.02335 N/A
2:34 pm 14:34 Cloudy 77 25 73 23 89 89 SSW 7 11 29.74 1007 10 16.0934 N/A
2:54 pm 14:54 Mostly Cloudy 77 25 73 23 89 89 S 8 13 29.74 1007 10 16.0934 N/A
3:14 pm 15:14 Mostly Cloudy 77 25 73 23 89 89 S 12 19 29.71 1006 10 16.0934 N/A
3:34 pm 15:34 Partly Cloudy 81 27 75 24 84 84 SSW 10 17 29.71 1006 10 16.0934 N/A
3:54 pm 15:54 Partly Cloudy 79 26 73 23 84 84 S 9 15 29.68 1005 10 16.0934 N/A
4:14 pm 16:14 Mostly Cloudy 79 26 73 23 84 84 S 13 20 29.68 1005 10 16.0934 N/A
4:33 pm 16:33 Cloudy 77 25 72 22 83 83 SSW 13 20 29.71 1006 2.5 4.02335 N/A
4:54 pm 16:54 Cloudy 72 22 68 20 88 88 W 18 30 29.74 1007 5 8.0467 N/A
5:14 pm 17:14 Cloudy 70 21 68 20 94 94 WSW 6 9 29.74 1007 0.75 1.207005 N/A
5:34 pm 17:34 Mostly Cloudy 72 22 70 21 94 94 WSW 7 11 29.71 1006 10 16.0934 N/A
5:54 pm 17:54 Cloudy 70 21 70 21 100 100 WSW 6 9 29.71 1006 5 8.0467 N/A
6:14 pm 18:14 Partly Cloudy 70 21 70 21 100 100 SW 3 6 29.71 1006 10 16.0934 N/A
6:34 pm 18:34 Partly Cloudy 72 22 70 21 94 94 S 3 6 29.71 1006 10 16.0934 N/A
6:54 pm 18:54 Sunny 72 22 70 21 94 94 S 5 7 29.71 1006 10 16.0934 N/A
7:14 pm 19:14 Partly Cloudy 72 22 70 21 94 94 S 5 7 29.71 1006 10 16.0934 N/A
7:34 pm 19:34 Partly Cloudy 72 22 70 21 94 94 S 5 7 29.71 1006 10 16.0934 N/A
7:54 pm 19:54 Partly Cloudy 72 22 70 21 94 94 S 3 6 29.71 1006 10 16.0934 N/A
8:14 pm 20:14 Sunny 70 21 70 21 100 100 S 3 6 29.74 1007 10 16.0934 N/A
8:34 pm 20:34 Clear 70 21 70 21 100 100 S 5 7 29.74 1007 10 16.0934 N/A
8:54 pm 20:54 Partly Cloudy 70 21 70 21 100 100 SSW 5 7 29.74 1007 10 16.0934 N/A
9:14 pm 21:14 Clear 70 21 70 21 100 100 SSW 5 7 29.77 1008 10 16.0934 N/A
9:34 pm 21:34 Clear 70 21 70 21 100 100 SSW 3 6 29.77 1008 10 16.0934 N/A
9:54 pm 21:54 Clear 70 21 68 20 94 94 SSW 5 7 29.77 1008 10 16.0934 N/A
10:13 pm 22:13 Mostly Cloudy 70 21 70 21 100 100 SSW 3 6 29.77 1008 7 11.26538 N/A
10:34 pm 22:34 Cloudy 70 21 70 21 100 100 SW 3 6 29.77 1008 10 16.0934 N/A
10:54 pm 22:54 Partly Cloudy 70 21 68 20 94 94 Calm 29.77 1008 10 16.0934 N/A
11:14 pm 23:14 Partly Cloudy 70 21 68 20 94 94 WSW 5 7 29.77 1008 10 16.0934 N/A
11:34 pm 23:34 Mostly Cloudy 70 21 68 20 94 94 WSW 6 9 29.77 1008 10 16.0934 N/A
11:54 pm 23:54 Cloudy 70 21 68 20 94 94 W 12 19 29.77 1008 10 16.0934 N/A

Powered by AerisWeather